sat.trackr.live / text

‹ back to catalog

STARLINK-1394

NORAD 45679 · 2020-035Y

PAYLOAD ACTIVE UNKNOWN

§ Identity

Operator
Country
US
Launch date
2020-06-04
Launch site
AFETR
Launch vehicle
Mass (kg)
RCS (m²)

Purposes: comms

External: N2YO · Heavens-Above · Gunter

§ Orbital elements

Epoch: 2026-09-20T02:59:18.894336Z

Period
91.18 min
Inclination
53.0313°
Eccentricity
0.0005043
Mean motion
15.79256013 rev/d
Perigee alt
329.2 km
Apogee alt
335.9 km
Semi-major
6,710.7 km
B*
4.3530e-4
RAAN
161.2536°
Arg perigee
102.1617°
Mean anomaly
257.9968°
Rev number
34,961

§ Raw data

STARLINK-13941 45679U 20035Y   26263.12452424  .00079916  00000+0  43530-3 0  99932 45679  53.0313 161.2536 0005043 102.1617 257.9968 15.79256013349610

JSON: /api/v1/satellites/45679 · /tle

For live sub-satellite position, see the globe view (requires WebGL).

§ Visibility from observer

Set your observer location to see the next 7 days of passes ≥ 10°. The values pass through the URL so the page stays shareable.

No JS? Fill the form by hand. The geolocation button needs JavaScript.